Regional Weather Roundup
Issued by NWS

Home | Current Version | Previous Version | Text Only | Print | Product List | Glossary On
Versions: 1 2 3 4 5 6 7 8 9 10 11 12 13 14 15 16 17 18 19 20 21 22 23 24 25 26 27 28 29 30 31 32 33 34 35 36 37 38 39 40 41 42 43 44 45 46 47 48 49 50
000
ASUS46 KPQR 240810
RWROR

OREGON REGIONAL WEATHER ROUNDUP
NATIONAL WEATHER SERVICE PORTLAND OR
100 AM PDT MON JUL 24 2017

NOTE: "FAIR" INDICATES FEW OR NO CLOUDS BELOW 12,000 FEET WITH
NO SIGNIFICANT WEATHER AND/OR OBSTRUCTIONS TO VISIBILITY.

ORZ001>013-240900-
NORTHWEST OREGON


CITY           SKY/WX    TMP DP  RH WIND       PRES   REMARKS
ASTORIA        CLEAR     57  53  86 NW9       30.04S
NEWPORT        CLEAR     54  50  87 N8        30.06S
PORTLAND       CLEAR     63  52  67 NW6       29.98S
VANCOUVER WA   CLEAR     63  54  72 NW3       29.97S
SCAPPOOSE      CLEAR     61  51  70 N8        29.96F
HILLSBORO      CLEAR     59  49  69 NW9       29.98S
AURORA         CLEAR     62  47  57 N6        30.00R
MCMINNVILLE    CLEAR     57  50  77 W3        29.99S
SALEM          CLEAR     60  49  66 N6        29.98R
CORVALLIS      CLEAR     59  48  67 W7        29.98S
EUGENE         CLEAR     61  53  75 NE12      29.96R
$$

ORZ021-028-240900-
SOUTHWEST OREGON


CITY           SKY/WX    TMP DP  RH WIND       PRES   REMARKS
NORTH BEND     CLEAR     56  52  86 N12       30.01S
BROOKINGS      CLEAR     57  54  89 CALM      29.86F
ROSEBURG       PTCLDY    70  56  61 W3        29.93R
SEXTON SUMMIT  MOCLDY    61  53  75 N13G25    30.00F
GRANTS PASS    FAIR      75  55  50 NW8       29.93R
MEDFORD        CLEAR     77  57  50 NW3       29.88S
$$

ORZ014>016-041-240900-
COLUMBIA GORGE


CITY           SKY/WX    TMP DP  RH WIND       PRES   REMARKS
TROUTDALE      CLEAR     63  52  67 CALM      29.97S
HOOD RIVER     CLEAR     66  55  68 S5        29.89S
THE DALLES     CLEAR     74  57  55 NW18      29.84R
$$

ORZ029>031-041-044-049-050-061>064-502-503-505>511-240900-
EASTERN OREGON


CITY           SKY/WX    TMP DP  RH WIND       PRES   REMARKS
MADRAS         PTCLDY    63  45  51 CALM      29.96S
REDMOND        MOCLDY    70  39  32 W9        29.98R
BEND           MOCLDY    68  43  40 W6        30.00F
PRINEVILLE     CLOUDY    70  45  40 NW7       29.99S
KLAMATH FALLS  CLEAR     66  60  81 CALM      29.98S
LAKEVIEW       PTCLDY    63  47  55 W5        30.05R
HERMISTON      PTCLDY    76  51  41 N5        29.83R
PENDLETON      PTCLDY    69  50  50 NW6       29.87R
JOHN DAY       CLOUDY    74  46  36 CALM      30.00R
MEACHAM        PTCLDY    56  48  74 CALM      30.01R
LA GRANDE      PTCLDY    75  46  35 W14       29.92S
BAKER CITY     MOCLDY    63  51  65 SE7       29.96F
BURNS          CLOUDY    72  40  31 E9        29.98F
ROME             N/A     81  33  17 SW3       29.95F
ONTARIO        CLOUDY    77  54  44 E3        29.85S
$$



USA.gov is the U.S. government's official web portal to all federal, state and local government web resources and services.